Weather History for Sanford, FL

Change the Weather History Date:

Tuesday, March 19, 2013

  Actual Average Record
Temperature  
Mean Temperature 74 °F -  
Max Temperature 87 °F 77 °F 92 °F (1984)
Min Temperature 63 °F 54 °F 37 °F (1985)
Cooling Degree Days 10    
Growing Degree Days 24 (Base 50)    
Moisture  
Dew Point 60 °F    
Average Humidity 70    
Maximum Humidity 94    
Minimum Humidity 36    
Precipitation  
Precipitation 0.00 in - - ()
Sea Level Pressure  
Sea Level Pressure 29.96 in    
Wind  
Wind Speed 5 mph (NE)    
Max Wind Speed 10 mph    
Max Gust Speed -    
Visibility 10 miles    
Events      
Averages and records for this station are not official NWS values.
T = Trace of Precipitation, MM = Missing Value Source: NWS Daily Summary

Daily Weather History Graph

Daily Weather History Graph

Search for Another Location

Airport:

Trip Planner

Search our weather history database for the weather conditions in past years. The results will help you decide how hot, cold, wet, or windy it might be!

Date:

Astronomy

Mar. 19, 2013 Rise Set
Actual Time 7:29 AM EDT 7:35 PM EDT
Civil Twilight 7:06 AM EDT 7:59 PM EDT
Nautical Twilight 6:38 AM EDT 8:27 PM EDT
Astronomical Twilight 6:11 AM EDT 8:54 PM EDT
Moon 12:44 PM EDT (3/19) 1:55 AM EDT (3/19)
Length of Visible Light 12h 53m
Length of Day
12h 06m
Waxing Crescent, 49% of the Moon is Illuminated
Mar 19
Waxing Crescent
Mar 19
First Quarter
Mar 27
Full
Apr 3
Last Quarter
Apr 10
New

Hourly Weather History & Observations

Time (EDT) Temp. Heat Index Dew Point Humidity Pressure Visibility Wind Dir Wind Speed Gust Speed Precip Events Conditions
12:53 AM 69.1 °F - 63.0 °F 81% 29.94 in 10.0 mi SW 5.8 mph - N/A   Clear
1:53 AM 66.9 °F - 63.0 °F 87% 29.94 in 10.0 mi Calm Calm - N/A   Clear
2:53 AM 66.9 °F - 63.0 °F 87% 29.96 in 10.0 mi North 4.6 mph - N/A   Clear
3:53 AM 66.0 °F - 63.0 °F 90% 29.95 in 10.0 mi Calm Calm - N/A   Clear
4:53 AM 64.9 °F - 63.0 °F 93% 29.95 in 10.0 mi NNE 4.6 mph - N/A   Partly Cloudy
5:53 AM 64.0 °F - 62.1 °F 93% 29.94 in 8.0 mi NNE 5.8 mph - N/A   Scattered Clouds
6:01 AM 64.4 °F - 62.6 °F 94% 29.94 in 8.0 mi NE 5.8 mph - N/A   Mostly Cloudy
6:53 AM 63.0 °F - 61.0 °F 93% 29.96 in 10.0 mi East 4.6 mph - N/A   Overcast
7:53 AM 64.0 °F - 59.0 °F 84% 29.98 in 10.0 mi South 6.9 mph - N/A   Scattered Clouds
8:53 AM 64.0 °F - 60.1 °F 87% 30.01 in 10.0 mi Calm Calm - N/A   Clear
9:49 AM 66.2 °F - 60.8 °F 83% 30.05 in 10.0 mi NNW 10.4 mph - N/A   Mostly Cloudy
9:53 AM 66.0 °F - 60.1 °F 81% 30.04 in 10.0 mi North 9.2 mph - N/A   Mostly Cloudy
10:06 AM 68.0 °F - 60.8 °F 78% 30.03 in 10.0 mi NE 3.5 mph - N/A   Scattered Clouds
10:53 AM 73.0 °F - 59.0 °F 61% 29.99 in 10.0 mi SSE 9.2 mph - N/A   Clear
11:53 AM 75.0 °F - 59.0 °F 57% 29.99 in 10.0 mi Calm Calm - N/A   Clear
12:53 PM 81.0 °F 81.0 °F 57.0 °F 44% 29.99 in 10.0 mi Variable 5.8 mph - N/A   Clear
1:53 PM 84.0 °F 83.0 °F 55.9 °F 38% 29.95 in 10.0 mi South 8.1 mph - N/A   Clear
2:53 PM 84.0 °F 82.9 °F 55.0 °F 37% 29.93 in 10.0 mi Variable 3.5 mph - N/A   Clear
3:53 PM 84.9 °F 83.6 °F 55.0 °F 36% 29.91 in 10.0 mi North 10.4 mph - N/A   Clear
4:53 PM 86.0 °F 84.7 °F 55.9 °F 36% 29.90 in 10.0 mi NNW 10.4 mph - N/A   Clear
5:53 PM 82.9 °F 82.1 °F 55.9 °F 39% 29.91 in 10.0 mi NNW 4.6 mph - N/A   Mostly Cloudy
6:53 PM 77.0 °F - 57.9 °F 52% 29.92 in 10.0 mi East 9.2 mph - N/A   Scattered Clouds
7:53 PM 72.0 °F - 57.9 °F 61% 29.94 in 10.0 mi ENE 9.2 mph - N/A   Clear
8:53 PM 70.0 °F - 57.9 °F 65% 29.96 in 10.0 mi NE 4.6 mph - N/A   Mostly Cloudy
9:53 PM 69.1 °F - 60.1 °F 73% 29.97 in 10.0 mi NE 4.6 mph - N/A   Mostly Cloudy
10:53 PM 66.9 °F - 60.1 °F 79% 29.98 in 10.0 mi NNE 5.8 mph - N/A   Partly Cloudy
11:53 PM 66.9 °F - 62.1 °F 84% 29.99 in 10.0 mi NE 5.8 mph - N/A   Overcast